Newton, KS

12:47 AM CST on November 18, 2019 (GMT -0600)
Newton City County

Weather History for KEWK - August, 2019

Change the Weather History Date:

Thursday, August 22, 2019

  Actual Average Record
Temperature  
Mean Temperature 72 °F -  
Max Temperature 77 °F 87 °F 102 °F (2003)
Min Temperature 66 °F 65 °F 59 °F (2016)
Cooling Degree Days 6    
Growing Degree Days 22 (Base 50)    
Moisture  
Dew Point 68 °F    
Average Humidity 92    
Maximum Humidity 100    
Minimum Humidity 73    
Precipitation  
Precipitation 0.02 in - - ()
Sea Level Pressure  
Sea Level Pressure 29.97 in    
Wind  
Wind Speed 6 mph (ESE)    
Max Wind Speed 9 mph    
Max Gust Speed -    
Visibility 9 miles    
Events      
Averages and records for this station are not official NWS values.
T = Trace of Precipitation, MM = Missing Value Source: NWS Daily Summary

Daily Weather History Graph

Daily Weather History Graph

Search for Another Location

Airport or City:

Astronomy

Aug. 22, 2019 Rise Set
Actual Time 6:50 AM CDT 8:13 PM CDT
Civil Twilight 6:22 AM CDT 8:40 PM CDT
Nautical Twilight 5:49 AM CDT 9:13 PM CDT
Astronomical Twilight 5:14 AM CDT 9:48 PM CDT
Moon No Moon Rise 1:20 PM CDT (8/22)
Length of Visible Light 14h 18m
Length of Day
13h 23m
Waning Gibbous, 59% of the Moon is Illuminated
Aug 22
Waning Gibbous
Aug 23
Last Quarter
Aug 30
New
Sep 5
First Quarter
Sep 13
Full

Hourly Weather History & Observations

Time (CDT) Temp. Dew Point Humidity Pressure Visibility Wind Dir Wind Speed Gust Speed Precip Events Conditions
12:46 AM 69.8 °F 66.2 °F 88% 30.01 in 10.0 mi NNE 4.6 mph - N/A   Mostly Cloudy
12:56 AM 69.1 °F 66.9 °F 93% 29.96 in 10.0 mi NE 6.9 mph - N/A   Mostly Cloudy
1:07 AM 69.8 °F 69.8 °F 100% 30.00 in 10.0 mi North 6.9 mph - N/A   Mostly Cloudy
1:48 AM 69.8 °F 69.8 °F 100% 30.00 in 10.0 mi Variable 3.5 mph - 0.00 in   Mostly Cloudy
1:56 AM 70.0 °F 70.0 °F 100% 29.96 in 10.0 mi ENE 3.5 mph - 0.00 in   Mostly Cloudy
2:27 AM 69.8 °F 69.8 °F 100% 30.00 in 8.0 mi East 6.9 mph - N/A   Mostly Cloudy
2:35 AM 69.8 °F 69.8 °F 100% 30.00 in 7.0 mi East 6.9 mph - N/A   Scattered Clouds
2:49 AM 69.8 °F 69.8 °F 100% 29.98 in 6.0 mi East 8.1 mph - N/A   Mostly Cloudy
2:56 AM 70.0 °F 70.0 °F 100% 29.94 in 5.0 mi East 8.1 mph - N/A   Mostly Cloudy
3:56 AM 70.0 °F 70.0 °F 100% 29.93 in 6.0 mi ESE 6.9 mph - N/A   Mostly Cloudy
4:33 AM 69.8 °F 69.8 °F 100% 29.98 in 6.0 mi ESE 4.6 mph - N/A   Mostly Cloudy
4:56 AM 70.0 °F 69.1 °F 97% 29.93 in 9.0 mi ESE 5.8 mph - N/A   Overcast
5:56 AM 70.0 °F 69.1 °F 97% 29.95 in 6.0 mi SE 4.6 mph - 0.02 in   Overcast
6:56 AM 68.0 °F 66.9 °F 96% 29.99 in 10.0 mi South 8.1 mph - N/A   Scattered Clouds
7:56 AM 66.9 °F 66.0 °F 97% 30.00 in 10.0 mi SSE 4.6 mph - N/A   Scattered Clouds
8:38 AM 68.0 °F 66.2 °F 94% 30.03 in 10.0 mi SSE 5.8 mph - N/A   Mostly Cloudy
8:56 AM 68.0 °F 66.9 °F 96% 29.99 in 10.0 mi SE 8.1 mph - N/A   Mostly Cloudy
9:56 AM 69.1 °F 66.9 °F 93% 29.96 in 10.0 mi SSE 9.2 mph - N/A   Unknown
10:56 AM 72.0 °F 68.0 °F 87% 29.97 in 10.0 mi East 3.5 mph - N/A   Scattered Clouds
11:56 AM 73.9 °F 69.1 °F 85% 29.97 in 10.0 mi ESE 6.9 mph - N/A   Scattered Clouds
12:56 PM 75.0 °F 68.0 °F 79% 29.96 in 10.0 mi East 4.6 mph - N/A   Partly Cloudy
2:56 PM 75.0 °F 66.0 °F 73% 29.97 in 10.0 mi South 6.9 mph - N/A   Mostly Cloudy
3:56 PM 75.0 °F 66.9 °F 76% 29.95 in 10.0 mi Calm Calm - N/A   Clear
4:56 PM 75.0 °F 69.1 °F 82% 29.92 in 10.0 mi South 4.6 mph - N/A   Clear
5:56 PM 75.9 °F 70.0 °F 82% 29.91 in 10.0 mi South 4.6 mph - N/A   Clear
6:56 PM 77.0 °F 70.0 °F 79% 29.91 in 10.0 mi East 4.6 mph - N/A   Clear
7:28 PM 75.2 °F 69.8 °F 83% 29.96 in 10.0 mi East 3.5 mph - N/A   Mostly Cloudy
7:56 PM 75.0 °F 70.0 °F 84% 29.94 in 10.0 mi ESE 6.9 mph - N/A   Mostly Cloudy
8:56 PM 71.1 °F 68.0 °F 90% 29.94 in 10.0 mi ESE 8.1 mph - N/A   Clear
9:56 PM 70.0 °F 68.0 °F 93% 29.96 in 10.0 mi ESE 8.1 mph - N/A   Clear
10:56 PM 69.1 °F 66.9 °F 93% 29.97 in 10.0 mi East 3.5 mph - N/A   Clear
11:56 PM 69.1 °F 66.9 °F 93% 29.96 in 10.0 mi East 3.5 mph - N/A   Clear